Preview of NWS' New Version of Forecast
This preview is not operational and should not be used for support decisions.

Regional Weather Roundup (RWR)

Issued by National Weather Service (NWS)

                            
000
ASUS45 KCYS 220510
RWRWY 

WYOMING REGIONAL WEATHER ROUNDUP
NATIONAL WEATHER SERVICE CHEYENNE WY
1100 PM MDT SUN APR 21 2019

NOTE:  "FAIR" INDICATES FEW OR NO CLOUDS BELOW 12,000 FEET
WITH NO SIGNIFICANT WEATHER AND/OR OBSTRUCTIONS TO VISIBILITY.

WYZ001-220600-
YELLOWSTONE NATIONAL PARK
  
CITY           SKY/WX    TMP DP  RH WIND       PRES   REMARKS
LK YELLOWSTONE   N/A     32  23  69 VRB3      30.17S                  
W YELLOWSTONE  NOT AVBL                                               

$$
WYZ002>013-054>058-071-098>099-220600-
NORTHERN WYOMING
  
CITY           SKY/WX    TMP DP  RH WIND       PRES   REMARKS
JACKSON        CLOUDY    39  35  86 N14       30.10R WCI  31          
CODY           LGT RAIN  37  33  85 NW13      30.22F WCI  29          
GREYBULL       CLOUDY    44  40  85 NW7       30.18R                  
WORLAND        LGT RAIN  41  39  93 SW9       30.20R                  
SHERIDAN       CLOUDY    43  41  93 N3        30.23S                  
BUFFALO        CLOUDY    40  39  97 N9        30.22S FOG     WCI  34  
GILLETTE       CLOUDY    41  40  96 N6        30.20S                  
HULETT         CLOUDY    41  39  93 CALM      30.21S                  
NEWCASTLE      LGT RAIN  39  37  93 NW3       30.19                   

$$
WYZ014>020-022>026-101>103-220600-
CENTRAL WYOMING
  
CITY           SKY/WX    TMP DP  RH WIND       PRES   REMARKS
BIG PINEY      LGT RAIN  37  35  92 NW6       30.13R WCI  32          
PINEDALE       DRIZZLE   37  36  93 CALM      30.13                   
DUBOIS         CLOUDY    32  32 100 SE16G22   30.15S WCI  21          
LANDER         LGT RAIN  37  35  92 SW5       30.19S FOG     WCI  33  
RIVERTON       LGT RAIN  38  36  92 CALM      30.20R                  
CASPER         LGT RAIN  40  40 100 NE8       30.18S FOG     WCI  34  
DOUGLAS          N/A     41  41 100 N5        30.18R FOG              

$$
WYZ021-027>030-104>119-220600-
SOUTHERN WYOMING
  
CITY           SKY/WX    TMP DP  RH WIND       PRES   REMARKS
EVANSTON       CLOUDY    38  34  85 NE5       30.09R WCI  34          
KEMMERER       LGT RAIN  34  32  93 NE14      30.12S WCI  24          
ROCK SPRINGS   LGT RAIN  35  33  92 NE23      30.10R WCI  23          
DIXON          FAIR      43  34  71 NE18      30.09R                  
RAWLINS        RAIN      36  34  92 N8        30.14S WCI  30          
SARATOGA       LGT RAIN  41  41 100 CALM      30.12S                  
LARAMIE        LGT RAIN  37  35  92 CALM      30.14R                  
CHEYENNE       LGT RAIN  40  40 100 NE12G18   30.13R FOG     WCI  33  
TORRINGTON     LGT RAIN  42  41  96 N12       30.13R                  
PINE BLUFFS    CLOUDY    41  41 100 N13       30.11R FOG              

$$
  

000
ASUS45 KCYS 220510
RWRWY 

WYOMING REGIONAL WEATHER ROUNDUP
NATIONAL WEATHER SERVICE CHEYENNE WY
1100 PM MDT SUN APR 21 2019

NOTE:  "FAIR" INDICATES FEW OR NO CLOUDS BELOW 12,000 FEET
WITH NO SIGNIFICANT WEATHER AND/OR OBSTRUCTIONS TO VISIBILITY.

WYZ001-220600-
...YELLOWSTONE NATIONAL PARK...
  
CITY           SKY/WX    TMP DP  RH WIND       PRES   REMARKS
LK YELLOWSTONE   N/A     32  23  69 VRB3      30.17S                  
W YELLOWSTONE  NOT AVBL                                               

$$
WYZ002>013-054>058-071-098>099-220600-
...NORTHERN WYOMING...
  
CITY           SKY/WX    TMP DP  RH WIND       PRES   REMARKS
JACKSON        CLOUDY    39  35  86 N14       30.10R WCI  31          
CODY           LGT RAIN  37  33  85 NW13      30.22F WCI  29          
GREYBULL       CLOUDY    44  40  85 NW7       30.18R                  
WORLAND        LGT RAIN  41  39  93 SW9       30.20R                  
SHERIDAN       CLOUDY    43  41  93 N3        30.23S                  
BUFFALO        CLOUDY    40  39  97 N9        30.22S FOG     WCI  34  
GILLETTE       CLOUDY    41  40  96 N6        30.20S                  
HULETT         CLOUDY    41  39  93 CALM      30.21S                  
NEWCASTLE      LGT RAIN  39  37  93 NW3       30.19R                  

$$
WYZ014>020-022>026-101>103-220600-
...CENTRAL WYOMING...
  
CITY           SKY/WX    TMP DP  RH WIND       PRES   REMARKS
BIG PINEY      LGT RAIN  37  35  92 NW6       30.13R WCI  32          
PINEDALE       DRIZZLE   37  36  93 CALM      30.13S                  
DUBOIS         CLOUDY    32  32 100 SE16G22   30.15S WCI  21          
LANDER         LGT RAIN  37  35  92 SW5       30.19S FOG     WCI  33  
RIVERTON       LGT RAIN  38  36  92 CALM      30.20R                  
CASPER         LGT RAIN  40  40 100 NE8       30.18S FOG     WCI  34  
DOUGLAS          N/A     41  41 100 N5        30.18R FOG              

$$
WYZ021-027>030-104>119-220600-
...SOUTHERN WYOMING...
  
CITY           SKY/WX    TMP DP  RH WIND       PRES   REMARKS
EVANSTON       CLOUDY    38  34  85 NE5       30.09R WCI  34          
KEMMERER       LGT RAIN  34  32  93 NE14      30.12S WCI  24          
FORT BRIDGER   NOT AVBL                                               
ROCK SPRINGS   LGT RAIN  35  33  92 NE23      30.10R WCI  23          
DIXON          FAIR      43  34  71 NE18      30.09R                  
RAWLINS        RAIN      36  34  92 N8        30.14S WCI  30          
SARATOGA       LGT RAIN  41  41 100 CALM      30.12S                  
LARAMIE        LGT RAIN  37  35  92 CALM      30.14R                  
CHEYENNE       LGT RAIN  40  40 100 NE12G18   30.13R FOG     WCI  33  
TORRINGTON     LGT RAIN  42  41  96 N12       30.13R                  
PINE BLUFFS    CLOUDY    41  41 100 N13       30.11R FOG              

$$